Location: ???????
(55.8719°N, 38.1523°E)
Time: 17:03:01
(UTC+00:00)

SL-16 R/B - Pass Details

Date: 14 April 2024
Orbit: 985 x 1006 km, 99.7° (Epoch: 23 May)

Event Time Altitude Azimuth Distance (km) Brightness Sun altitude
Exits shadow 00:51:36 11° 201° (SSW) 2,697 4.3 -12.2°
Maximum altitude 00:57:02 35° 265° (W) 1,550 3.2 -11.6°
Drops below altitude 10° 01:02:43 10° 330° (NNW) 2,781 5.0 -11.0°
Sets 01:05:28 0° 340° (NNW) 3,738 5.8 -10.6°
